Flag for United Kingdom Weather past 2 weeks in Cardiff, Wales, United Kingdom

Now
55 °F

Partly cloudy.


Feels Like: 53 °F
Forecast: 49 / 61 °F
Wind: 9 mph from Southwest

Location: Wales Airport

Current Time: Oct 23, 2014 at 9:05:50 AM

Latest Report: Oct 23, 2014 at 8:20 AM


Visibility: N/A

Pressure: 30.09 "Hg

Humidity: 94%

Dew point: 54 °F

Location of CardiffLocation

Historic Weather in Cardiff — Graph

°F

Cardiff temperature yesterday

Maximum temperature yesterday: 55 °F (at 11:50 AM)
Minimum temperature yesterday: 48 °F (at 12:20 AM)
Average temperature yesterday: 53 °F

Past Weeks' High & Low Weather Summary

 TemperatureHumidityPressure
High64 °F (Oct 18, 6:50 AM)100% (Oct 11, 5:20 AM)30.33 "Hg (Oct 11, 5:20 AM)
Low45 °F (Oct 12, 8:20 AM)58% (Oct 21, 3:50 PM)29.24 "Hg (Oct 8, 1:20 PM)
Average56 °F85%29.76 "Hg
* Reported Oct 8 7:20 AM — Oct 23 7:50 AM, Cardiff, Weather by CustomWeather, © 2014

Note: Actual official high and low records may vary slightly from our data, if they occured in-between our weather recording intervals... More about our weather records

Advertising

Cardiff weather history for previous 24 hours

 ConditionsComfort  
Time TempWeatherWind HumidityBarometerVisibility
7:50 AM
Oct 23
54 °FPassing clouds.9 mph100%30.09 "Hg4 mi
7:20 AM54 °FDrizzle. Fog.9 mph100%30.09 "Hg2 mi
6:50 AM54 °FPassing clouds.9 mph100%30.12 "Hg2 mi
6:20 AM54 °FRain. Mostly cloudy.12 mph100%30.12 "Hg4 mi
5:50 AM54 °FDrizzle. Low clouds.12 mph94%30.12 "Hg3 mi
5:20 AM54 °FMostly cloudy.9 mph94%30.12 "HgN/A
4:50 AM54 °FMostly cloudy.10 mph94%30.12 "HgN/A
4:20 AM55 °FOvercast.12 mph88%30.12 "HgN/A
3:50 AM55 °FMostly cloudy.10 mph88%30.15 "HgN/A
3:20 AM55 °FOvercast.14 mph82%30.15 "HgN/A
2:50 AM55 °FOvercast.13 mph82%30.15 "HgN/A
2:20 AM55 °FOvercast.14 mph82%30.15 "HgN/A
1:50 AM55 °FLight rain. Overcast.13 mph82%30.15 "HgN/A
1:20 AM55 °FOvercast.15 mph77%30.18 "HgN/A
12:50 AM55 °FOvercast.15 mph77%30.18 "HgN/A
12:20 AM55 °FOvercast.15 mph77%30.18 "HgN/A
11:50 PM
Oct 22
55 °FOvercast.17 mph72%30.18 "HgN/A
11:20 PM55 °FOvercast.16 mph77%30.21 "HgN/A
10:50 PM55 °FOvercast.16 mph77%30.21 "HgN/A
10:20 PM55 °FOvercast.14 mph77%30.21 "HgN/A
9:50 PM55 °FOvercast.14 mph77%30.21 "HgN/A
9:20 PM55 °FOvercast.15 mph77%30.21 "HgN/A
8:50 PM55 °FOvercast.14 mph77%30.21 "HgN/A
8:20 PM55 °FOvercast.14 mph77%30.21 "HgN/A
7:50 PM55 °FOvercast.14 mph72%30.21 "HgN/A
7:20 PM55 °FOvercast.13 mph77%30.24 "HgN/A
6:50 PM55 °FOvercast.15 mph77%30.24 "HgN/A
6:20 PM55 °FOvercast.13 mph77%30.24 "HgN/A
5:50 PM55 °FOvercast.14 mph77%30.24 "HgN/A
5:20 PM55 °FOvercast.14 mph77%30.24 "HgN/A
4:50 PM55 °FOvercast.13 mph77%30.24 "HgN/A
4:20 PM55 °FMostly cloudy.16 mph77%30.27 "HgN/A
3:20 PM55 °FOvercast.14 mph77%30.27 "HgN/A
2:50 PM55 °FMostly cloudy.14 mph77%30.27 "HgN/A
2:20 PM55 °FOvercast.14 mph77%30.27 "HgN/A
1:50 PM55 °FRain. Overcast.12 mph77%30.30 "HgN/A
1:20 PM55 °FOvercast.14 mph72%30.30 "HgN/A
12:50 PM55 °FOvercast.13 mph72%30.30 "HgN/A
12:20 PM55 °FOvercast.14 mph72%30.33 "HgN/A
11:50 AM55 °FOvercast.13 mph72%30.30 "HgN/A
11:20 AM54 °FOvercast.14 mph77%30.30 "HgN/A
10:50 AM54 °FOvercast.12 mph77%30.30 "HgN/A
10:20 AM54 °FBroken clouds.10 mph77%30.33 "HgN/A
9:50 AM54 °FPartly sunny.14 mph72%30.33 "HgN/A
9:20 AM52 °FPassing clouds.13 mph77%30.33 "HgN/A
Weather by CustomWeather, © 2014

See weather overviewHow to use our weather pages